Time,TemperatureF,DewpointF,PressureIn,WindDirection,WindDirectionDegrees,WindSpeedMPH,WindSpeedGustMPH,Humidity,HourlyPrecipIn,Conditions,Clouds,dailyrainin,SoftwareType,DateUTC
2013-03-02 00:00:00,28.1,25.5,29.75,North,350,0.0,5.0,90,0.00,,,0.01,VWS V14.01,2013-03-02 05:00:00,
2013-03-02 00:05:00,28.2,25.6,29.75,NNE,14,0.0,0.0,90,0.00,,,0.00,VWS V14.01,2013-03-02 05:05:00,
2013-03-02 00:10:00,28.1,25.5,29.75,NNE,15,0.0,2.0,90,0.00,,,0.00,VWS V14.01,2013-03-02 05:10:00,
2013-03-02 00:15:00,28.2,25.6,29.75,ENE,78,0.0,2.0,90,0.00,,,0.00,VWS V14.01,2013-03-02 05:15:00,
2013-03-02 00:20:00,28.2,25.6,29.75,NE,45,2.0,4.0,90,0.00,,,0.00,VWS V14.01,2013-03-02 05:20:00,
2013-03-02 00:25:00,28.2,25.6,29.75,ENE,71,0.0,0.0,90,0.00,,,0.00,VWS V14.01,2013-03-02 05:25:00,
2013-03-02 00:30:00,28.2,25.6,29.75,North,10,0.0,2.0,90,0.00,,,0.00,VWS V14.01,2013-03-02 05:30:00,
2013-03-02 00:35:00,28.1,25.5,29.75,North,10,0.0,0.0,90,0.00,,,0.00,VWS V14.01,2013-03-02 05:35:00,
2013-03-02 00:40:00,28.1,25.5,29.75,North,10,0.0,1.0,90,0.00,,,0.00,VWS V14.01,2013-03-02 05:40:00,
2013-03-02 00:45:00,28.0,25.5,29.75,North,10,0.0,0.0,90,0.00,,,0.00,VWS V14.01,2013-03-02 05:45:00,
2013-03-02 00:50:00,28.0,25.7,29.75,North,10,0.0,1.0,91,0.00,,,0.00,VWS V14.01,2013-03-02 05:50:00,
2013-03-02 00:55:00,28.0,25.5,29.75,North,360,0.0,0.0,90,0.00,,,0.00,VWS V14.01,2013-03-02 05:55:00,
2013-03-02 01:00:00,28.0,25.5,29.75,East,79,0.0,5.0,90,0.00,,,0.00,VWS V14.01,2013-03-02 06:00:00,
2013-03-02 01:05:00,28.1,25.5,29.75,ENE,65,0.0,0.0,90,0.00,,,0.00,VWS V14.01,2013-03-02 06:05:00,
2013-03-02 01:10:00,28.1,25.5,29.75,ENE,65,0.0,1.0,90,0.00,,,0.00,VWS V14.01,2013-03-02 06:10:00,
2013-03-02 01:15:00,28.1,25.5,29.75,NNW,347,0.0,0.0,90,0.00,,,0.00,VWS V14.01,2013-03-02 06:15:00,
2013-03-02 01:20:00,28.2,25.6,29.75,NNE,17,0.0,1.0,90,0.00,,,0.00,VWS V14.01,2013-03-02 06:20:00,
2013-03-02 01:25:00,28.2,25.4,29.75,NNE,19,0.0,0.0,89,0.00,,,0.00,VWS V14.01,2013-03-02 06:25:00,
2013-03-02 01:30:00,28.3,25.5,29.75,NNE,19,0.0,3.0,89,0.00,,,0.00,VWS V14.01,2013-03-02 06:30:00,
2013-03-02 01:35:00,28.3,25.5,29.75,NNE,12,0.0,2.0,89,0.00,,,0.00,VWS V14.01,2013-03-02 06:35:00,
2013-03-02 01:40:00,28.4,25.3,29.75,North,5,0.0,4.0,88,0.00,,,0.00,VWS V14.01,2013-03-02 06:40:00,
2013-03-02 01:45:00,28.4,25.3,29.75,North,11,0.0,2.0,88,0.00,,,0.00,VWS V14.01,2013-03-02 06:45:00,
2013-03-02 01:50:00,28.3,25.2,29.75,North,11,0.0,5.0,88,0.00,,,0.00,VWS V14.01,2013-03-02 06:50:00,
2013-03-02 01:55:00,28.2,25.1,29.75,NNW,336,4.0,9.0,88,0.00,,,0.00,VWS V14.01,2013-03-02 06:55:00,
2013-03-02 02:00:00,28.1,25.3,29.75,North,360,4.0,10.0,89,0.00,,,0.00,VWS V14.01,2013-03-02 07:00:00,
2013-03-02 02:05:00,28.1,25.0,29.75,NNW,348,7.0,8.0,88,0.00,,,0.00,VWS V14.01,2013-03-02 07:05:00,
2013-03-02 02:10:00,28.0,25.2,29.75,North,355,3.0,9.0,89,0.00,,,0.00,VWS V14.01,2013-03-02 07:10:00,
2013-03-02 02:15:00,28.0,25.2,29.75,North,360,2.0,3.0,89,0.00,,,0.00,VWS V14.01,2013-03-02 07:15:00,
2013-03-02 02:20:00,28.0,25.2,29.75,North,355,2.0,4.0,89,0.00,,,0.00,VWS V14.01,2013-03-02 07:20:00,
2013-03-02 02:25:00,27.9,25.1,29.75,North,355,1.0,2.0,89,0.00,,,0.00,VWS V14.01,2013-03-02 07:25:00,
2013-03-02 02:30:00,27.9,25.1,29.75,NNW,346,0.0,3.0,89,0.00,,,0.00,VWS V14.01,2013-03-02 07:30:00,
2013-03-02 02:35:00,27.9,25.1,29.75,NNW,346,0.0,0.0,89,0.00,,,0.00,VWS V14.01,2013-03-02 07:35:00,
2013-03-02 02:40:00,27.9,25.1,29.75,NNW,346,0.0,0.0,89,0.00,,,0.00,VWS V14.01,2013-03-02 07:40:00,
2013-03-02 02:45:00,28.0,25.2,29.75,North,355,0.0,0.0,89,0.00,,,0.00,VWS V14.01,2013-03-02 07:45:00,
2013-03-02 02:50:00,28.0,25.2,29.75,North,355,2.0,2.0,89,0.00,,,0.00,VWS V14.01,2013-03-02 07:50:00,
2013-03-02 02:55:00,28.1,25.3,29.75,NNE,19,0.0,0.0,89,0.00,,,0.00,VWS V14.01,2013-03-02 07:55:00,
2013-03-02 03:00:00,28.1,25.3,29.75,NNE,19,0.0,1.0,89,0.00,,,0.00,VWS V14.01,2013-03-02 08:00:00,
2013-03-02 03:05:00,28.0,25.2,29.75,NNE,19,0.0,0.0,89,0.00,,,0.00,VWS V14.01,2013-03-02 08:05:00,
2013-03-02 03:10:00,28.0,25.5,29.75,NNE,19,0.0,0.0,90,0.00,,,0.00,VWS V14.01,2013-03-02 08:10:00,
2013-03-02 03:15:00,28.0,25.2,29.75,NNE,19,0.0,0.0,89,0.00,,,0.00,VWS V14.01,2013-03-02 08:15:00,
2013-03-02 03:20:00,28.0,25.2,29.75,NNW,348,3.0,7.0,89,0.00,,,0.00,VWS V14.01,2013-03-02 08:20:00,
2013-03-02 03:25:00,28.1,25.0,29.75,NNW,348,0.0,0.0,88,0.00,,,0.00,VWS V14.01,2013-03-02 08:25:00,
2013-03-02 03:30:00,28.2,25.4,29.75,NNW,348,0.0,1.0,89,0.00,,,0.00,VWS V14.01,2013-03-02 08:30:00,
2013-03-02 03:35:00,28.1,25.3,29.75,NNW,344,5.0,6.0,89,0.00,,,0.00,VWS V14.01,2013-03-02 08:35:00,
2013-03-02 03:40:00,28.3,25.2,29.75,NNW,331,3.0,7.0,88,0.00,,,0.00,VWS V14.01,2013-03-02 08:40:00,
2013-03-02 03:45:00,28.3,25.2,29.75,North,5,4.0,4.0,88,0.00,,,0.00,VWS V14.01,2013-03-02 08:45:00,
2013-03-02 03:50:00,28.3,25.2,29.75,NNW,341,0.0,8.0,88,0.00,,,0.00,VWS V14.01,2013-03-02 08:50:00,
2013-03-02 03:55:00,28.3,25.5,29.75,NNE,15,3.0,3.0,89,0.00,,,0.00,VWS V14.01,2013-03-02 08:55:00,
2013-03-02 04:00:00,28.3,25.5,29.75,North,360,0.0,5.0,89,0.00,,,0.00,VWS V14.01,2013-03-02 09:00:00,
2013-03-02 04:05:00,28.2,25.6,29.75,North,360,1.0,2.0,90,0.00,,,0.00,VWS V14.01,2013-03-02 09:05:00,
2013-03-02 04:10:00,28.1,25.5,29.75,North,360,0.0,3.0,90,0.00,,,0.00,VWS V14.01,2013-03-02 09:10:00,
2013-03-02 04:15:00,28.0,25.5,29.75,North,360,0.0,0.0,90,0.00,,,0.00,VWS V14.01,2013-03-02 09:15:00,
2013-03-02 04:20:00,27.9,25.6,29.75,North,360,0.0,0.0,91,0.00,,,0.00,VWS V14.01,2013-03-02 09:20:00,
2013-03-02 04:25:00,27.8,25.5,29.75,North,360,0.0,0.0,91,0.00,,,0.00,VWS V14.01,2013-03-02 09:25:00,
2013-03-02 04:30:00,27.8,25.5,29.75,North,360,0.0,0.0,91,0.00,,,0.00,VWS V14.01,2013-03-02 09:30:00,
2013-03-02 04:35:00,27.7,25.4,29.75,WNW,290,0.0,2.0,91,0.00,,,0.00,VWS V14.01,2013-03-02 09:35:00,
2013-03-02 04:40:00,27.6,25.6,29.75,WNW,300,0.0,2.0,92,0.00,,,0.00,VWS V14.01,2013-03-02 09:40:00,
2013-03-02 04:45:00,27.6,25.3,29.75,NE,54,0.0,0.0,91,0.00,,,0.00,VWS V14.01,2013-03-02 09:45:00,
2013-03-02 04:50:00,27.6,25.6,29.75,NE,54,0.0,0.0,92,0.00,,,0.00,VWS V14.01,2013-03-02 09:50:00,
2013-03-02 04:55:00,27.5,25.5,29.75,NE,54,0.0,0.0,92,0.00,,,0.00,VWS V14.01,2013-03-02 09:55:00,
2013-03-02 05:00:00,27.4,25.1,29.75,NE,54,0.0,0.0,91,0.00,,,0.00,VWS V14.01,2013-03-02 10:00:00,
2013-03-02 05:05:00,27.5,25.5,29.75,NE,54,0.0,0.0,92,0.00,,,0.00,VWS V14.01,2013-03-02 10:05:00,
2013-03-02 05:10:00,27.4,25.1,29.75,NE,53,0.0,3.0,91,0.00,,,0.00,VWS V14.01,2013-03-02 10:10:00,
2013-03-02 05:15:00,27.5,25.2,29.75,NE,53,0.0,0.0,91,0.00,,,0.00,VWS V14.01,2013-03-02 10:15:00,
2013-03-02 05:20:00,27.6,25.1,29.75,North,355,0.0,3.0,90,0.00,,,0.00,VWS V14.01,2013-03-02 10:20:00,
2013-03-02 05:25:00,27.6,25.1,29.75,NNW,348,3.0,4.0,90,0.00,,,0.00,VWS V14.01,2013-03-02 10:25:00,
2013-03-02 05:30:00,27.7,24.9,29.75,East,96,0.0,7.0,89,0.00,,,0.00,VWS V14.01,2013-03-02 10:30:00,
2013-03-02 05:35:00,27.8,25.0,29.75,NNE,26,0.0,0.0,89,0.00,,,0.00,VWS V14.01,2013-03-02 10:35:00,
2013-03-02 05:40:00,27.8,25.0,29.75,North,360,5.0,5.0,89,0.00,,,0.00,VWS V14.01,2013-03-02 10:40:00,
2013-03-02 05:45:00,27.8,24.7,29.75,NNW,338,0.0,3.0,88,0.00,,,0.00,VWS V14.01,2013-03-02 10:45:00,
2013-03-02 05:50:00,27.8,25.0,29.75,North,355,4.0,4.0,89,0.00,,,0.00,VWS V14.01,2013-03-02 10:50:00,
2013-03-02 05:55:00,27.8,24.7,29.75,North,5,3.0,3.0,88,0.00,,,0.00,VWS V14.01,2013-03-02 10:55:00,
2013-03-02 06:00:00,27.8,25.0,29.75,North,11,2.0,5.0,89,0.00,,,0.00,VWS V14.01,2013-03-02 11:00:00,
2013-03-02 06:05:00,27.8,25.0,29.75,North,5,0.0,1.0,89,0.00,,,0.00,VWS V14.01,2013-03-02 11:05:00,
2013-03-02 06:10:00,27.7,24.9,29.75,NNE,16,1.0,1.0,89,0.00,,,0.00,VWS V14.01,2013-03-02 11:10:00,
2013-03-02 06:15:00,27.6,24.8,29.75,NNW,342,3.0,9.0,89,0.00,,,0.00,VWS V14.01,2013-03-02 11:15:00,
2013-03-02 06:20:00,27.6,24.8,29.75,NNW,348,4.0,9.0,89,0.00,,,0.00,VWS V14.01,2013-03-02 11:20:00,
2013-03-02 06:25:00,27.4,24.6,29.75,NNW,340,4.0,9.0,89,0.00,,,0.00,VWS V14.01,2013-03-02 11:25:00,
2013-03-02 06:30:00,27.4,24.9,29.76,NNE,12,5.0,9.0,90,0.00,,,0.00,VWS V14.01,2013-03-02 11:30:00,
2013-03-02 06:35:00,27.2,24.7,29.76,NNE,15,2.0,5.0,90,0.00,,,0.00,VWS V14.01,2013-03-02 11:35:00,
2013-03-02 06:40:00,27.1,24.8,29.76,NNW,342,10.0,12.0,91,0.00,,,0.00,VWS V14.01,2013-03-02 11:40:00,
2013-03-02 06:45:00,27.0,24.7,29.76,NNW,346,2.0,10.0,91,0.00,,,0.00,VWS V14.01,2013-03-02 11:45:00,
2013-03-02 06:50:00,26.9,24.6,29.76,NNW,336,4.0,12.0,91,0.00,,,0.00,VWS V14.01,2013-03-02 11:50:00,
2013-03-02 06:55:00,26.8,24.8,29.76,NNE,22,0.0,4.0,92,0.00,,,0.00,VWS V14.01,2013-03-02 11:55:00,
2013-03-02 07:00:00,26.8,24.8,29.76,NNW,347,2.0,7.0,92,0.00,,,0.00,VWS V14.01,2013-03-02 12:00:00,
2013-03-02 07:05:00,26.7,24.7,29.76,North,11,4.0,7.0,92,0.00,,,0.00,VWS V14.01,2013-03-02 12:05:00,
2013-03-02 07:10:00,26.7,24.7,29.76,NNW,346,0.0,10.0,92,0.00,,,0.00,VWS V14.01,2013-03-02 12:10:00,
2013-03-02 07:15:00,26.7,24.7,29.76,NNE,23,7.0,11.0,92,0.00,,,0.00,VWS V14.01,2013-03-02 12:15:00,
2013-03-02 07:20:00,26.6,24.3,29.76,North,5,10.0,16.0,91,0.00,,,0.00,VWS V14.01,2013-03-02 12:20:00,
2013-03-02 07:25:00,26.6,24.3,29.77,NNW,344,4.0,4.0,91,0.00,,,0.00,VWS V14.01,2013-03-02 12:25:00,
2013-03-02 07:30:00,26.6,24.3,29.76,NNE,22,0.0,10.0,91,0.00,,,0.00,VWS V14.01,2013-03-02 12:30:00,
2013-03-02 07:35:00,26.5,24.2,29.77,North,355,2.0,5.0,91,0.00,,,0.00,VWS V14.01,2013-03-02 12:35:00,
2013-03-02 07:40:00,26.5,24.2,29.77,North,355,0.0,10.0,91,0.00,,,0.00,VWS V14.01,2013-03-02 12:40:00,
2013-03-02 07:45:00,26.5,24.5,29.77,NNW,348,3.0,9.0,92,0.00,,,0.00,VWS V14.01,2013-03-02 12:45:00,
2013-03-02 07:50:00,26.4,24.4,29.77,NNE,27,4.0,9.0,92,0.00,,,0.00,VWS V14.01,2013-03-02 12:50:00,
2013-03-02 07:55:00,26.4,24.4,29.77,North,360,0.0,0.0,92,0.00,,,0.00,VWS V14.01,2013-03-02 12:55:00,
2013-03-02 08:00:00,26.3,24.3,29.77,NNE,12,0.0,11.0,92,0.00,,,0.00,VWS V14.01,2013-03-02 13:00:00,
2013-03-02 08:05:00,26.3,24.3,29.77,North,360,10.0,11.0,92,0.00,,,0.00,VWS V14.01,2013-03-02 13:05:00,
2013-03-02 08:10:00,26.2,24.2,29.77,North,355,1.0,11.0,92,0.00,,,0.00,VWS V14.01,2013-03-02 13:10:00,
2013-03-02 08:15:00,26.3,24.3,29.77,East,92,5.0,7.0,92,0.00,,,0.00,VWS V14.01,2013-03-02 13:15:00,
2013-03-02 08:20:00,26.3,24.3,29.77,NNW,338,3.0,9.0,92,0.00,,,0.00,VWS V14.01,2013-03-02 13:20:00,
2013-03-02 08:25:00,26.2,24.2,29.77,NNW,347,7.0,9.0,92,0.00,,,0.00,VWS V14.01,2013-03-02 13:25:00,
2013-03-02 08:30:00,26.2,24.2,29.77,NNE,19,6.0,10.0,92,0.00,,,0.00,VWS V14.01,2013-03-02 13:30:00,
2013-03-02 08:35:00,26.2,24.2,29.77,NNW,346,5.0,6.0,92,0.00,,,0.00,VWS V14.01,2013-03-02 13:35:00,
2013-03-02 08:40:00,26.1,24.1,29.77,NNW,331,4.0,10.0,92,0.00,,,0.00,VWS V14.01,2013-03-02 13:40:00,
2013-03-02 08:45:00,26.1,23.8,29.77,NNW,346,4.0,9.0,91,0.00,,,0.00,VWS V14.01,2013-03-02 13:45:00,
2013-03-02 08:50:00,26.1,24.1,29.77,NNE,13,0.0,9.0,92,0.00,,,0.00,VWS V14.01,2013-03-02 13:50:00,
2013-03-02 08:55:00,26.1,24.1,29.77,North,11,2.0,5.0,92,0.00,,,0.00,VWS V14.01,2013-03-02 13:55:00,
2013-03-02 09:00:00,26.2,24.2,29.77,NNE,13,2.0,10.0,92,0.00,,,0.00,VWS V14.01,2013-03-02 14:00:00,
2013-03-02 09:05:00,26.3,24.3,29.77,North,5,3.0,8.0,92,0.00,,,0.00,VWS V14.01,2013-03-02 14:05:00,
2013-03-02 09:10:00,26.4,24.1,29.76,North,360,3.0,10.0,91,0.00,,,0.00,VWS V14.01,2013-03-02 14:10:00,
2013-03-02 09:15:00,26.5,24.2,29.76,North,355,4.0,6.0,91,0.00,,,0.00,VWS V14.01,2013-03-02 14:15:00,
2013-03-02 09:20:00,26.6,24.3,29.76,NNE,13,0.0,7.0,91,0.00,,,0.00,VWS V14.01,2013-03-02 14:20:00,
2013-03-02 09:25:00,26.7,24.2,29.76,NNW,340,3.0,4.0,90,0.00,,,0.00,VWS V14.01,2013-03-02 14:25:00,
2013-03-02 09:30:00,26.9,24.1,29.76,NNW,336,0.0,13.0,89,0.00,,,0.00,VWS V14.01,2013-03-02 14:30:00,
2013-03-02 09:35:00,26.9,24.1,29.76,North,5,3.0,8.0,89,0.00,,,0.00,VWS V14.01,2013-03-02 14:35:00,
2013-03-02 09:40:00,27.1,24.3,29.76,North,355,0.0,8.0,89,0.00,,,0.00,VWS V14.01,2013-03-02 14:40:00,
2013-03-02 09:45:00,27.3,24.5,29.76,North,5,3.0,5.0,89,0.00,,,0.00,VWS V14.01,2013-03-02 14:45:00,
2013-03-02 09:50:00,27.4,24.3,29.76,NNE,17,0.0,14.0,88,0.00,,,0.00,VWS V14.01,2013-03-02 14:50:00,
2013-03-02 09:55:00,27.5,24.4,29.76,NNW,337,2.0,5.0,88,0.00,,,0.00,VWS V14.01,2013-03-02 14:55:00,
2013-03-02 10:00:00,27.4,24.0,29.76,NW,315,4.0,10.0,87,0.00,,,0.00,VWS V14.01,2013-03-02 15:00:00,
2013-03-02 10:05:00,27.4,24.0,29.76,North,11,2.0,4.0,87,0.00,,,0.00,VWS V14.01,2013-03-02 15:05:00,
2013-03-02 10:10:00,27.6,24.2,29.76,North,360,2.0,9.0,87,0.00,,,0.00,VWS V14.01,2013-03-02 15:10:00,
2013-03-02 10:15:00,27.4,24.0,29.76,North,355,2.0,9.0,87,0.00,,,0.00,VWS V14.01,2013-03-02 15:15:00,
2013-03-02 10:20:00,27.4,24.0,29.76,North,355,3.0,13.0,87,0.00,,,0.00,VWS V14.01,2013-03-02 15:20:00,
2013-03-02 10:25:00,27.5,24.1,29.76,North,350,10.0,10.0,87,0.00,,,0.00,VWS V14.01,2013-03-02 15:25:00,
2013-03-02 10:30:00,27.7,24.3,29.76,North,11,4.0,10.0,87,0.00,,,0.00,VWS V14.01,2013-03-02 15:30:00,
2013-03-02 10:35:00,27.8,24.4,29.76,NNW,346,4.0,4.0,87,0.00,,,0.00,VWS V14.01,2013-03-02 15:35:00,
2013-03-02 10:40:00,27.8,24.4,29.76,North,351,9.0,11.0,87,0.00,,,0.00,VWS V14.01,2013-03-02 15:40:00,
2013-03-02 10:45:00,27.6,24.5,29.76,North,5,0.0,2.0,88,0.00,,,0.00,VWS V14.01,2013-03-02 15:45:00,
2013-03-02 10:50:00,27.8,24.4,29.76,North,351,3.0,7.0,87,0.00,,,0.00,VWS V14.01,2013-03-02 15:50:00,
2013-03-02 10:55:00,27.6,24.2,29.76,North,360,12.0,12.0,87,0.00,,,0.00,VWS V14.01,2013-03-02 15:55:00,
2013-03-02 11:00:00,27.6,24.2,29.76,NNW,346,6.0,12.0,87,0.00,,,0.00,VWS V14.01,2013-03-02 16:00:00,
2013-03-02 11:05:00,27.6,24.2,29.76,NNW,346,2.0,4.0,87,0.00,,,0.00,VWS V14.01,2013-03-02 16:05:00,
2013-03-02 11:10:00,27.9,24.3,29.76,North,5,1.0,5.0,86,0.00,,,0.00,VWS V14.01,2013-03-02 16:10:00,
2013-03-02 11:15:00,27.9,24.0,29.76,NW,321,2.0,3.0,85,0.00,,,0.00,VWS V14.01,2013-03-02 16:15:00,
2013-03-02 11:20:00,28.0,24.1,29.76,NNE,15,0.0,9.0,85,0.00,,,0.00,VWS V14.01,2013-03-02 16:20:00,
2013-03-02 11:25:00,28.1,24.2,29.76,North,360,2.0,4.0,85,0.00,,,0.00,VWS V14.01,2013-03-02 16:25:00,
2013-03-02 11:30:00,28.2,24.3,29.76,NNE,13,2.0,5.0,85,0.00,,,0.00,VWS V14.01,2013-03-02 16:30:00,
2013-03-02 11:35:00,28.4,24.5,29.76,NNE,13,2.0,3.0,85,0.00,,,0.00,VWS V14.01,2013-03-02 16:35:00,
2013-03-02 11:40:00,28.4,24.2,29.76,North,355,0.0,9.0,84,0.00,,,0.00,VWS V14.01,2013-03-02 16:40:00,
2013-03-02 11:45:00,28.5,24.3,29.76,North,355,1.0,6.0,84,0.00,,,0.00,VWS V14.01,2013-03-02 16:45:00,
2013-03-02 11:50:00,28.6,24.1,29.76,NNW,348,0.0,8.0,83,0.00,,,0.00,VWS V14.01,2013-03-02 16:50:00,
2013-03-02 11:55:00,28.7,24.2,29.75,NNW,345,5.0,8.0,83,0.00,,,0.00,VWS V14.01,2013-03-02 16:55:00,
2013-03-02 12:00:00,28.6,24.1,29.75,NNW,344,2.0,8.0,83,0.00,,,0.00,VWS V14.01,2013-03-02 17:00:00,
2013-03-02 12:05:00,28.9,24.4,29.75,NNW,343,6.0,6.0,83,0.00,,,0.00,VWS V14.01,2013-03-02 17:05:00,
2013-03-02 12:10:00,29.3,24.5,29.75,North,5,0.0,8.0,82,0.00,,,0.00,VWS V14.01,2013-03-02 17:10:00,
2013-03-02 12:15:00,29.7,24.6,29.75,NNE,12,0.0,2.0,81,0.00,,,0.00,VWS V14.01,2013-03-02 17:15:00,
2013-03-02 12:20:00,29.6,24.5,29.75,North,360,8.0,10.0,81,0.00,,,0.00,VWS V14.01,2013-03-02 17:20:00,
2013-03-02 12:25:00,29.2,24.1,29.75,NNW,341,4.0,6.0,81,0.00,,,0.00,VWS V14.01,2013-03-02 17:25:00,
2013-03-02 12:30:00,29.4,24.3,29.75,NNE,17,0.0,8.0,81,0.00,,,0.00,VWS V14.01,2013-03-02 17:30:00,
2013-03-02 12:35:00,29.2,23.8,29.75,North,349,6.0,7.0,80,0.00,,,0.00,VWS V14.01,2013-03-02 17:35:00,
2013-03-02 12:40:00,29.4,24.0,29.75,NNW,327,7.0,10.0,80,0.00,,,0.00,VWS V14.01,2013-03-02 17:40:00,
2013-03-02 12:45:00,29.4,24.0,29.75,NNE,19,3.0,4.0,80,0.00,,,0.00,VWS V14.01,2013-03-02 17:45:00,
2013-03-02 12:50:00,29.6,23.9,29.75,NNW,344,2.0,7.0,79,0.00,,,0.00,VWS V14.01,2013-03-02 17:50:00,
2013-03-02 12:55:00,29.5,23.8,29.74,NNW,340,8.0,10.0,79,0.00,,,0.00,VWS V14.01,2013-03-02 17:55:00,
2013-03-02 13:00:00,29.2,23.5,29.74,North,355,6.0,12.0,79,0.00,,,0.00,VWS V14.01,2013-03-02 18:00:00,
2013-03-02 13:05:00,29.2,23.5,29.74,NW,325,9.0,9.0,79,0.00,,,0.00,VWS V14.01,2013-03-02 18:05:00,
2013-03-02 13:10:00,29.3,23.6,29.74,NNE,20,6.0,11.0,79,0.00,,,0.00,VWS V14.01,2013-03-02 18:10:00,
2013-03-02 13:15:00,29.3,23.6,29.74,NW,314,3.0,6.0,79,0.00,,,0.00,VWS V14.01,2013-03-02 18:15:00,
2013-03-02 13:20:00,29.3,23.6,29.74,NNW,338,5.0,10.0,79,0.00,,,0.00,VWS V14.01,2013-03-02 18:20:00,
2013-03-02 13:25:00,29.0,23.6,29.74,NNW,339,5.0,5.0,80,0.00,,,0.00,VWS V14.01,2013-03-02 18:25:00,
2013-03-02 13:30:00,29.0,23.6,29.74,North,350,7.0,11.0,80,0.00,,,0.00,VWS V14.01,2013-03-02 18:30:00,
2013-03-02 13:35:00,28.9,23.8,29.74,NNW,348,3.0,5.0,81,0.00,,,0.00,VWS V14.01,2013-03-02 18:35:00,
2013-03-02 13:40:00,28.9,23.5,29.74,NW,309,5.0,9.0,80,0.00,,,0.00,VWS V14.01,2013-03-02 18:40:00,
2013-03-02 13:45:00,28.8,23.4,29.74,North,9,3.0,4.0,80,0.00,,,0.00,VWS V14.01,2013-03-02 18:45:00,
2013-03-02 13:50:00,28.9,23.8,29.74,NNW,347,5.0,9.0,81,0.00,,,0.00,VWS V14.01,2013-03-02 18:50:00,
2013-03-02 13:55:00,28.9,23.5,29.74,North,355,2.0,6.0,80,0.00,,,0.00,VWS V14.01,2013-03-02 18:55:00,
2013-03-02 14:00:00,29.1,24.0,29.74,NNW,344,2.0,6.0,81,0.00,,,0.00,VWS V14.01,2013-03-02 19:00:00,
2013-03-02 14:05:00,29.0,23.6,29.74,NNW,342,1.0,3.0,80,0.00,,,0.00,VWS V14.01,2013-03-02 19:05:00,
2013-03-02 14:10:00,29.1,24.0,29.74,NNW,348,3.0,12.0,81,0.00,,,0.00,VWS V14.01,2013-03-02 19:10:00,
2013-03-02 14:15:00,28.8,23.1,29.75,NE,44,10.0,13.0,79,0.00,,,0.00,VWS V14.01,2013-03-02 19:15:00,
2013-03-02 14:20:00,28.4,23.3,29.74,North,355,7.0,13.0,81,0.00,,,0.00,VWS V14.01,2013-03-02 19:20:00,
2013-03-02 14:25:00,28.1,22.7,29.74,NNW,348,9.0,9.0,80,0.00,,,0.00,VWS V14.01,2013-03-02 19:25:00,
2013-03-02 14:30:00,28.0,22.9,29.74,North,351,9.0,14.0,81,0.00,,,0.00,VWS V14.01,2013-03-02 19:30:00,
2013-03-02 14:35:00,27.9,23.1,29.74,North,355,5.0,5.0,82,0.00,,,0.00,VWS V14.01,2013-03-02 19:35:00,
2013-03-02 14:40:00,27.9,23.1,29.74,NNE,22,6.0,17.0,82,0.00,,,0.00,VWS V14.01,2013-03-02 19:40:00,
2013-03-02 14:45:00,27.6,23.1,29.74,North,360,5.0,7.0,83,0.00,,,0.00,VWS V14.01,2013-03-02 19:45:00,
2013-03-02 14:50:00,27.5,23.0,29.74,NNW,328,3.0,13.0,83,0.00,,,0.00,VWS V14.01,2013-03-02 19:50:00,
2013-03-02 14:55:00,27.6,23.4,29.74,NNW,348,5.0,8.0,84,0.00,,,0.00,VWS V14.01,2013-03-02 19:55:00,
2013-03-02 15:00:00,27.4,23.5,29.74,North,351,2.0,13.0,85,0.00,,,0.00,VWS V14.01,2013-03-02 20:00:00,
2013-03-02 15:05:00,27.4,23.5,29.75,North,355,2.0,2.0,85,0.00,,,0.00,VWS V14.01,2013-03-02 20:05:00,
2013-03-02 15:10:00,27.6,23.7,29.75,North,349,4.0,6.0,85,0.00,,,0.00,VWS V14.01,2013-03-02 20:10:00,
2013-03-02 15:15:00,27.6,23.4,29.75,North,5,3.0,3.0,84,0.00,,,0.00,VWS V14.01,2013-03-02 20:15:00,
2013-03-02 15:20:00,27.4,23.2,29.75,NNW,343,6.0,12.0,84,0.00,,,0.00,VWS V14.01,2013-03-02 20:20:00,
2013-03-02 15:25:00,27.2,23.0,29.75,North,11,0.0,4.0,84,0.00,,,0.00,VWS V14.01,2013-03-02 20:25:00,
2013-03-02 15:30:00,27.3,23.4,29.75,NE,38,3.0,10.0,85,0.00,,,0.00,VWS V14.01,2013-03-02 20:30:00,
2013-03-02 15:35:00,27.3,23.1,29.75,North,5,6.0,6.0,84,0.00,,,0.00,VWS V14.01,2013-03-02 20:35:00,
2013-03-02 15:40:00,27.0,22.5,29.75,North,5,14.0,14.0,83,0.00,,,0.00,VWS V14.01,2013-03-02 20:40:00,
2013-03-02 15:45:00,26.8,22.6,29.75,North,9,3.0,5.0,84,0.00,,,0.00,VWS V14.01,2013-03-02 20:45:00,
2013-03-02 15:50:00,26.8,22.6,29.75,NNW,345,9.0,10.0,84,0.00,,,0.00,VWS V14.01,2013-03-02 20:50:00,
2013-03-02 15:55:00,26.7,22.8,29.75,North,350,2.0,4.0,85,0.00,,,0.00,VWS V14.01,2013-03-02 20:55:00,
2013-03-02 16:00:00,26.7,22.8,29.75,NNE,25,3.0,10.0,85,0.00,,,0.00,VWS V14.01,2013-03-02 21:00:00,
2013-03-02 16:05:00,26.7,22.8,29.75,NNW,341,4.0,4.0,85,0.00,,,0.00,VWS V14.01,2013-03-02 21:05:00,
2013-03-02 16:10:00,26.8,23.5,29.75,NNE,12,3.0,6.0,87,0.00,,,0.00,VWS V14.01,2013-03-02 21:10:00,
2013-03-02 16:15:00,26.7,22.8,29.75,North,9,0.0,3.0,85,0.00,,,0.00,VWS V14.01,2013-03-02 21:15:00,
2013-03-02 16:20:00,26.7,23.4,29.75,North,355,1.0,8.0,87,0.00,,,0.00,VWS V14.01,2013-03-02 21:20:00,
2013-03-02 16:25:00,26.6,23.5,29.75,North,350,7.0,7.0,88,0.00,,,0.00,VWS V14.01,2013-03-02 21:25:00,
2013-03-02 16:30:00,26.3,23.2,29.75,NNW,345,1.0,8.0,88,0.00,,,0.00,VWS V14.01,2013-03-02 21:30:00,
2013-03-02 16:35:00,26.2,23.4,29.75,NNE,18,0.0,1.0,89,0.00,,,0.00,VWS V14.01,2013-03-02 21:35:00,
2013-03-02 16:40:00,26.1,23.6,29.75,NW,326,0.0,6.0,90,0.00,,,0.00,VWS V14.01,2013-03-02 21:40:00,
2013-03-02 16:45:00,26.1,23.6,29.76,NNW,348,5.0,5.0,90,0.00,,,0.00,VWS V14.01,2013-03-02 21:45:00,
2013-03-02 16:50:00,25.9,23.6,29.76,NNW,345,3.0,8.0,91,0.00,,,0.00,VWS V14.01,2013-03-02 21:50:00,
2013-03-02 16:55:00,25.8,23.5,29.76,North,350,2.0,2.0,91,0.00,,,0.00,VWS V14.01,2013-03-02 21:55:00,
2013-03-02 17:00:00,25.6,23.3,29.76,NNE,22,4.0,6.0,91,0.00,,,0.00,VWS V14.01,2013-03-02 22:00:00,
2013-03-02 17:05:00,25.6,23.3,29.76,North,350,0.0,0.0,91,0.00,,,0.00,VWS V14.01,2013-03-02 22:05:00,
2013-03-02 17:10:00,25.5,23.2,29.76,North,5,1.0,7.0,91,0.00,,,0.00,VWS V14.01,2013-03-02 22:10:00,
2013-03-02 17:15:00,25.4,23.1,29.76,NNW,336,0.0,1.0,91,0.00,,,0.00,VWS V14.01,2013-03-02 22:15:00,
2013-03-02 17:20:00,25.4,23.1,29.76,NNW,348,0.0,7.0,91,0.00,,,0.00,VWS V14.01,2013-03-02 22:20:00,
2013-03-02 17:25:00,25.4,23.1,29.76,North,349,3.0,5.0,91,0.00,,,0.00,VWS V14.01,2013-03-02 22:25:00,
2013-03-02 17:30:00,25.4,23.1,29.76,North,355,4.0,5.0,91,0.00,,,0.00,VWS V14.01,2013-03-02 22:30:00,
2013-03-02 17:35:00,25.3,23.0,29.77,North,5,0.0,0.0,91,0.00,,,0.00,VWS V14.01,2013-03-02 22:35:00,
2013-03-02 17:40:00,25.2,23.0,29.76,North,360,2.0,4.0,91,0.00,,,0.00,VWS V14.01,2013-03-02 22:40:00,
2013-03-02 17:45:00,25.3,23.0,29.77,North,360,0.0,1.0,91,0.00,,,0.00,VWS V14.01,2013-03-02 22:45:00,
2013-03-02 17:50:00,25.2,23.0,29.77,North,5,0.0,2.0,91,0.00,,,0.00,VWS V14.01,2013-03-02 22:50:00,
2013-03-02 17:55:00,25.2,23.2,29.77,North,5,0.0,0.0,92,0.00,,,0.00,VWS V14.01,2013-03-02 22:55:00,
2013-03-02 18:00:00,25.3,23.3,29.77,North,5,0.0,0.0,92,0.00,,,0.00,VWS V14.01,2013-03-02 23:00:00,
2013-03-02 18:05:00,25.0,22.8,29.77,NNW,342,1.0,3.0,91,0.00,,,0.00,VWS V14.01,2013-03-02 23:05:00,
2013-03-02 18:10:00,25.0,22.8,29.77,North,9,0.0,3.0,91,0.00,,,0.00,VWS V14.01,2013-03-02 23:10:00,
2013-03-02 18:15:00,24.9,22.6,29.77,North,9,0.0,0.0,91,0.00,,,0.00,VWS V14.01,2013-03-02 23:15:00,
2013-03-02 18:20:00,24.7,22.5,29.78,North,9,1.0,2.0,91,0.00,,,0.00,VWS V14.01,2013-03-02 23:20:00,
2013-03-02 18:25:00,24.6,22.4,29.78,NNW,342,0.0,0.0,91,0.00,,,0.00,VWS V14.01,2013-03-02 23:25:00,
2013-03-02 18:30:00,24.5,22.5,29.78,NNW,348,2.0,4.0,92,0.00,,,0.00,VWS V14.01,2013-03-02 23:30:00,
2013-03-02 18:35:00,24.3,22.3,29.78,NW,324,3.0,4.0,92,0.00,,,0.00,VWS V14.01,2013-03-02 23:35:00,
2013-03-02 18:40:00,24.2,22.2,29.78,ENE,71,0.0,4.0,92,0.00,,,0.00,VWS V14.01,2013-03-02 23:40:00,
2013-03-02 18:45:00,24.1,22.1,29.78,NE,54,2.0,2.0,92,0.00,,,0.00,VWS V14.01,2013-03-02 23:45:00,
2013-03-02 18:50:00,24.0,22.0,29.78,North,10,6.0,6.0,92,0.00,,,0.00,VWS V14.01,2013-03-02 23:50:00,
2013-03-02 18:55:00,23.9,21.9,29.78,ENE,61,0.0,0.0,92,0.00,,,0.00,VWS V14.01,2013-03-02 23:55:00,
2013-03-02 19:00:00,23.8,21.8,29.78,NE,34,1.0,2.0,92,0.00,,,0.00,VWS V14.01,2013-03-03 00:00:00,
2013-03-02 19:05:00,23.7,21.7,29.79,North,5,1.0,1.0,92,0.00,,,0.00,VWS V14.01,2013-03-03 00:05:00,
2013-03-02 19:10:00,23.7,21.7,29.78,North,5,0.0,1.0,92,0.00,,,0.00,VWS V14.01,2013-03-03 00:10:00,
2013-03-02 19:15:00,23.6,21.6,29.79,North,10,0.0,0.0,92,0.00,,,0.00,VWS V14.01,2013-03-03 00:15:00,
2013-03-02 19:20:00,23.6,21.6,29.79,North,350,4.0,4.0,92,0.00,,,0.00,VWS V14.01,2013-03-03 00:20:00,
2013-03-02 19:25:00,23.5,21.5,29.79,NNW,348,0.0,0.0,92,0.00,,,0.00,VWS V14.01,2013-03-03 00:25:00,
2013-03-02 19:30:00,23.4,21.4,29.78,North,5,0.0,1.0,92,0.00,,,0.00,VWS V14.01,2013-03-03 00:30:00,
2013-03-02 19:35:00,23.3,21.1,29.78,North,5,0.0,0.0,91,0.00,,,0.00,VWS V14.01,2013-03-03 00:35:00,
2013-03-02 19:40:00,23.2,21.0,29.79,North,5,0.0,8.0,91,0.00,,,0.00,VWS V14.01,2013-03-03 00:40:00,
2013-03-02 19:45:00,23.1,20.9,29.78,North,360,0.0,0.0,91,0.00,,,0.00,VWS V14.01,2013-03-03 00:45:00,
2013-03-02 19:50:00,23.0,20.8,29.78,North,355,0.0,2.0,91,0.00,,,0.00,VWS V14.01,2013-03-03 00:50:00,
2013-03-02 19:55:00,22.9,20.7,29.78,North,350,3.0,4.0,91,0.00,,,0.00,VWS V14.01,2013-03-03 00:55:00,
2013-03-02 20:00:00,22.7,20.5,29.78,North,5,0.0,7.0,91,0.00,,,0.00,VWS V14.01,2013-03-03 01:00:00,
2013-03-02 20:05:00,22.6,20.4,29.78,NNE,18,0.0,0.0,91,0.00,,,0.00,VWS V14.01,2013-03-03 01:05:00,
2013-03-02 20:10:00,22.5,20.3,29.78,NNE,31,0.0,4.0,91,0.00,,,0.00,VWS V14.01,2013-03-03 01:10:00,
2013-03-02 20:15:00,22.4,20.2,29.78,ENE,76,0.0,0.0,91,0.00,,,0.00,VWS V14.01,2013-03-03 01:15:00,
2013-03-02 20:20:00,22.3,20.1,29.78,ENE,75,0.0,2.0,91,0.00,,,0.00,VWS V14.01,2013-03-03 01:20:00,
2013-03-02 20:25:00,22.3,20.1,29.78,ENE,75,0.0,0.0,91,0.00,,,0.00,VWS V14.01,2013-03-03 01:25:00,
2013-03-02 20:30:00,22.2,20.0,29.78,ENE,75,0.0,2.0,91,0.00,,,0.00,VWS V14.01,2013-03-03 01:30:00,
2013-03-02 20:35:00,22.2,19.7,29.78,ENE,75,0.0,0.0,90,0.00,,,0.00,VWS V14.01,2013-03-03 01:35:00,
2013-03-02 20:40:00,22.2,19.7,29.78,NNE,20,0.0,4.0,90,0.00,,,0.00,VWS V14.01,2013-03-03 01:40:00,
2013-03-02 20:45:00,22.2,19.7,29.78,NNE,31,0.0,0.0,90,0.00,,,0.00,VWS V14.01,2013-03-03 01:45:00,
2013-03-02 20:50:00,22.1,19.6,29.78,ENE,72,0.0,2.0,90,0.00,,,0.00,VWS V14.01,2013-03-03 01:50:00,
2013-03-02 20:55:00,22.0,19.5,29.78,NE,51,0.0,0.0,90,0.00,,,0.00,VWS V14.01,2013-03-03 01:55:00,
2013-03-02 21:00:00,22.0,19.5,29.78,ENE,63,1.0,3.0,90,0.00,,,0.00,VWS V14.01,2013-03-03 02:00:00,
2013-03-02 21:04:00,21.9,19.4,29.78,ENE,63,0.0,0.0,90,0.00,,,0.00,VWS V14.01,2013-03-03 02:04:00,
2013-03-02 21:09:00,21.9,19.4,29.78,ENE,63,0.0,2.0,90,0.00,,,0.00,VWS V14.01,2013-03-03 02:09:00,
2013-03-02 21:14:00,21.8,19.3,29.78,ENE,59,0.0,1.0,90,0.00,,,0.00,VWS V14.01,2013-03-03 02:14:00,
2013-03-02 21:19:00,21.7,19.5,29.78,ENE,59,0.0,2.0,91,0.00,,,0.00,VWS V14.01,2013-03-03 02:19:00,
2013-03-02 21:24:00,21.6,19.4,29.78,East,90,0.0,0.0,91,0.00,,,0.00,VWS V14.01,2013-03-03 02:24:00,
2013-03-02 21:29:00,21.6,19.4,29.78,ENE,64,0.0,2.0,91,0.00,,,0.00,VWS V14.01,2013-03-03 02:29:00,
2013-03-02 21:34:00,21.6,19.4,29.78,ESE,112,0.0,2.0,91,0.00,,,0.00,VWS V14.01,2013-03-03 02:34:00,
2013-03-02 21:39:00,21.5,19.3,29.78,East,82,0.0,3.0,91,0.00,,,0.00,VWS V14.01,2013-03-03 02:39:00,
2013-03-02 21:44:00,21.5,19.3,29.77,ENE,60,0.0,4.0,91,0.00,,,0.00,VWS V14.01,2013-03-03 02:44:00,
2013-03-02 21:49:00,21.5,19.0,29.78,East,79,1.0,4.0,90,0.00,,,0.00,VWS V14.01,2013-03-03 02:49:00,
2013-03-02 21:54:00,21.4,18.9,29.77,ENE,72,2.0,4.0,90,0.00,,,0.00,VWS V14.01,2013-03-03 02:54:00,
2013-03-02 21:59:00,21.3,18.8,29.77,East,86,0.0,4.0,90,0.00,,,0.00,VWS V14.01,2013-03-03 02:59:00,
2013-03-02 22:04:00,21.3,18.8,29.77,East,92,0.0,4.0,90,0.00,,,0.00,VWS V14.01,2013-03-03 03:04:00,
2013-03-02 22:09:00,21.2,18.7,29.77,East,92,0.0,4.0,90,0.00,,,0.00,VWS V14.01,2013-03-03 03:09:00,
2013-03-02 22:14:00,21.1,18.9,29.77,East,86,2.0,4.0,91,0.00,,,0.00,VWS V14.01,2013-03-03 03:14:00,
2013-03-02 22:19:00,21.1,18.9,29.77,East,86,0.0,2.0,91,0.00,,,0.00,VWS V14.01,2013-03-03 03:19:00,
2013-03-02 22:24:00,21.1,18.9,29.77,SSE,153,1.0,6.0,91,0.00,,,0.00,VWS V14.01,2013-03-03 03:24:00,
2013-03-02 22:29:00,21.0,18.8,29.77,ESE,107,0.0,5.0,91,0.00,,,0.00,VWS V14.01,2013-03-03 03:29:00,
2013-03-02 22:34:00,20.9,18.7,29.77,ESE,116,1.0,5.0,91,0.00,,,0.00,VWS V14.01,2013-03-03 03:34:00,
2013-03-02 22:39:00,20.9,18.7,29.76,ESE,116,0.0,4.0,91,0.00,,,0.00,VWS V14.01,2013-03-03 03:39:00,
2013-03-02 22:44:00,20.9,18.7,29.76,ESE,116,0.0,4.0,91,0.00,,,0.00,VWS V14.01,2013-03-03 03:44:00,
2013-03-02 22:49:00,20.9,18.7,29.76,ENE,70,0.0,2.0,91,0.00,,,0.00,VWS V14.01,2013-03-03 03:49:00,
2013-03-02 22:54:00,20.9,18.7,29.76,East,94,0.0,2.0,91,0.00,,,0.00,VWS V14.01,2013-03-03 03:54:00,
2013-03-02 22:59:00,20.9,18.7,29.76,East,98,0.0,2.0,91,0.00,,,0.00,VWS V14.01,2013-03-03 03:59:00,
2013-03-02 23:04:00,20.9,19.0,29.76,NE,44,0.0,2.0,92,0.00,,,0.00,VWS V14.01,2013-03-03 04:04:00,
2013-03-02 23:09:00,20.9,19.0,29.76,East,101,0.0,2.0,92,0.00,,,0.00,VWS V14.01,2013-03-03 04:09:00,
2013-03-02 23:14:00,20.9,19.0,29.76,East,98,0.0,2.0,92,0.00,,,0.00,VWS V14.01,2013-03-03 04:14:00,
2013-03-02 23:19:00,20.9,19.0,29.76,East,97,0.0,1.0,92,0.00,,,0.00,VWS V14.01,2013-03-03 04:19:00,
2013-03-02 23:24:00,20.9,19.0,29.76,East,98,0.0,1.0,92,0.00,,,0.00,VWS V14.01,2013-03-03 04:24:00,
2013-03-02 23:29:00,20.9,19.0,29.76,East,97,0.0,2.0,92,0.00,,,0.00,VWS V14.01,2013-03-03 04:29:00,
2013-03-02 23:34:00,20.9,19.0,29.76,East,97,0.0,2.0,92,0.00,,,0.00,VWS V14.01,2013-03-03 04:34:00,
2013-03-02 23:39:00,20.9,19.0,29.76,East,97,0.0,1.0,92,0.00,,,0.00,VWS V14.01,2013-03-03 04:39:00,
2013-03-02 23:44:00,20.9,19.0,29.76,East,97,0.0,1.0,92,0.00,,,0.00,VWS V14.01,2013-03-03 04:44:00,
2013-03-02 23:49:00,20.9,19.0,29.76,East,97,0.0,2.0,92,0.00,,,0.00,VWS V14.01,2013-03-03 04:49:00,
2013-03-02 23:54:00,20.9,19.0,29.76,ESE,103,0.0,2.0,92,0.00,,,0.00,VWS V14.01,2013-03-03 04:54:00,
2013-03-02 23:59:00,20.9,19.0,29.76,ESE,103,0.0,1.0,92,0.00,,,0.00,VWS V14.01,2013-03-03 04:59:00,